Regional Weather Roundup
Issued by NWS

Home | Current Version | Previous Version | Graphics & Text | Print | Product List | Glossary On
Versions: 1 2 3 4 5 6 7 8 9 10 11 12 13 14 15 16 17 18 19 20 21 22 23 24 25 26 27 28 29 30 31 32 33 34 35 36 37 38 39 40 41 42 43 44 45 46 47 48 49 50
000
ASUS43 KLOT 281808
RWRIL

ILLINOIS REGIONAL WEATHER ROUNDUP
NATIONAL WEATHER SERVICE CHICAGO/ROMEOVILLE IL
100 PM CDT TUE JUL 28 2015

NOTE: "FAIR" INDICATES FEW OR NO CLOUDS BELOW 12,000 FEET WITH NO
SIGNIFICANT WEATHER AND/OR OBSTRUCTIONS TO VISIBILITY.

* THESE STATIONS ARE NOT UNDER NWS QUALITY CONTROL. THEY ALSO MAY NOT
  REPORT WEATHER SUCH AS PRECIPITATION OR FOG.

ILZ001-002-007-009-015-016-024-281900-
NORTHWEST ILLINOIS

CITY           SKY/WX    TMP DP  RH WIND       PRES   REMARKS
MOLINE         CLOUDY    83  75  77 SE7       29.97F HX  90
6HR MIN TEMP:  72; 6HR MAX TEMP:  83; 6HR PCP:  0.22;

STERLING*      CLOUDY    79  75  89 CALM      29.98F HX  82
SAVANNA*       CLOUDY    80  72  76 SE5       29.99R THUNDER HX  83
$$

ILZ003-004-008-010-011-017-018-281900-
NORTH CENTRAL ILLINOIS

CITY           SKY/WX    TMP DP  RH WIND       PRES   REMARKS
ROCKFORD       CLOUDY    84  71  65 SW9       30.01R HX  89
6HR MIN TEMP:  71; 6HR MAX TEMP:  85;

FREEPORT*      CLOUDY    77  73  87 S3        30.01F
ROCHELLE*      PTSUNNY   83  74  73 SW6       30.01  HX  90
DE KALB*       MOSUNNY   81  71  71 SW5       30.01S HX  85
PERU*          CLOUDY    82  74  78 W6        30.01R HX  87
$$

ILZ005-006-012>014-019>023-281900-
NORTHEAST ILLINOIS

CITY           SKY/WX    TMP DP  RH WIND       PRES   REMARKS
CHICAGO-OHARE  PTSUNNY   87  69  54 SW5       29.98S HX  91
6HR MIN TEMP:  73; 6HR MAX TEMP:  88;

CHICAGO-MIDWAY PTSUNNY   90  70  51 S7        29.97F HX  95
6HR MIN TEMP:  76; 6HR MAX TEMP:  90;

AURORA         MOSUNNY   88  70  55 S7        29.99S HX  93
6HR MIN TEMP:  70; 6HR MAX TEMP:  88;

LANSING*       PTSUNNY   86  68  53 S9        29.99S HX  89
JOLIET*        PTSUNNY   89  74  62 SW5       29.98S HX  97
WAUKEGAN       MOSUNNY   82  67  60 SE8       29.99F HX  84
6HR MIN TEMP:  69; 6HR MAX TEMP:  82;

DUPAGE AIRPORT MOSUNNY   87  70  56 S8        29.98F HX  92
6HR MIN TEMP:  71; 6HR MAX TEMP:  88;

KANKAKEE*      PTSUNNY   86  74  68 SW3       29.99S HX  94
WHEELING       PTSUNNY   86  67  52 E8        29.99F HX  89
6HR MIN TEMP:  71; 6HR MAX TEMP:  87;

MORRIS*        PTSUNNY   86  73  65 S5        29.98R HX  93
ROMEOVILLE*    MOSUNNY   87  69  55 SW7       29.99S HX  91
NORTHERLY ISL    N/A     79  69  71 E9          N/A  HX  81
$$

LMZ740>746-281900-
SOUTHERN LAKE MICHIGAN

STATION/POSITION SKY/WX   TEMP    WIND        PRES    VSBY  WAVE
                          AIR SEA DIR/SP/G                  HT/PER
                          (F)     (DEG/KT/KT) (MB)    (MI)  (FT/S)
HARRISON CRIB              75      80/ 11/ 13   N/A
BURNHAM HARBOR             79      70/  7/  9   N/A
CALUMET HARBOR             78      50/ 10/ 12   N/A
BURNS HARBOR               85     170/  3/ 12 1015.9F
MICHIGAN CITY              83     140/  6/ 10   N/A
MICHIGAN CITY 6N           82 77  170/  2/  2   N/A           0
ST. JOSEPH                 81 75  240/  4/  4   N/A           1
$$

ILZ025>027-034>036-040-047-049-050-058-095>099-281900-
WEST-CENTRAL ILLINOIS

CITY           SKY/WX    TMP DP  RH WIND       PRES   REMARKS
QUINCY         MOSUNNY   90  77  65 SW3       29.96S HX 103
GALESBURG*     MOSUNNY   87  76  70 CALM      29.98F HX  97
MACOMB*        SUNNY     87  76  69 CALM      30.00R HX  97
JACKSONVILLE*  SUNNY     91  79  67 CALM      29.96S HX 107
PITTSFIELD*    MOSUNNY   90  78  68 CALM      29.97F HX 105
$$

ILZ028>032-037-038-041>044-048-051>054-059>061-281900-
CENTRAL ILLINOIS

CITY           SKY/WX    TMP DP  RH WIND       PRES   REMARKS
PONTIAC        PTSUNNY   87  75  69 CALM      30.00R HX  96
BLOOMINGTON    MOSUNNY   88  77  69 VRB5      30.00S HX 100
DECATUR        MOSUNNY   91  74  57 CALM      29.97F HX 100
PEORIA         PTSUNNY   89  77  67 S3        29.98R HX 101
6HR MIN TEMP:  76; 6HR MAX TEMP:  90; 6HR PCP:  0.01;

LACON*         TSTM      73  69  90 CALM      30.02R VSB 1
LINCOLN*       MOSUNNY   91  76  61 S3        29.96S HX 101
SPRINGFIELD    MOSUNNY   92  78  63 VRB5      29.96F HX 107
6HR MIN TEMP:  77; 6HR MAX TEMP:  92;

TAYLORVILLE    PTSUNNY   86  77  74 SW5       29.97F HX  97
$$

ILZ033-039-045-046-055>057-062-063-281900-
EAST-CENTRAL ILLINOIS

CITY           SKY/WX    TMP DP  RH WIND       PRES   REMARKS
CHAMPAIGN      MOSUNNY   89  75  63 VRB3      29.99S HX  99
DANVILLE*      CLOUDY    86  78  75 CALM      29.95F HAZE    HX  98
RANTOUL*       PTSUNNY   90  77  66 SW3       29.98F HX 102
MATTOON        MOSUNNY   87  74  64 S7        29.98S HX  95
PARIS*         SUNNY     89  77  67 S3        29.99S HX 100
$$

ILZ079-100>102-281900-
SOUTHWEST ILLINOIS

CITY           SKY/WX    TMP DP  RH WIND       PRES   REMARKS
ALTON          MOSUNNY   90  79  70 SE6       29.97F HX 105
BELLEVILLE     PTSUNNY   91  81  73 S3        29.95F HX 111
CAHOKIA*       MOSUNNY   94  77  57 CALM      29.95F HX 108
SPARTA*        MOSUNNY   90  79  71 SW5       29.98F HX 106
$$

ILZ064>066-069>071-074>076-080>082-084>086-088>090-092>094-281900-
SOUTH-CENTRAL ILLINOIS

CITY           SKY/WX    TMP DP  RH WIND       PRES   REMARKS
CARBONDALE     SUNNY     91  79  67 W5        29.98F HX 107
6HR MIN TEMP:  76; 6HR MAX TEMP:  91;

CAIRO*         SUNNY     91  80  69 SW5       29.98F HX 109
EFFINGHAM*     MOSUNNY   89  70  54 SW6       29.99F HX  94
MARION         MOSUNNY   93  79  62 SW7       29.98F HX 110
MT. VERNON     MOSUNNY   90  75  62 CALM      29.97F HX 100
CENTRALIA*     MOSUNNY   90  76  62 CALM      29.98S HX 101
SALEM*         MOSUNNY   91  76  61 SW3       29.98F HX 102
METROPOLIS*    SUNNY     92  81  69 SW6       29.99F HX 112
$$

ILZ067-068-072-073-078-083-087-091-281900-
SOUTHEAST ILLINOIS

CITY           SKY/WX    TMP DP  RH WIND       PRES   REMARKS
LAWRENCEVILLE  MOSUNNY   91  77  63 VRB5      29.98F HX 104
FLORA*         SUNNY     89  75  61 CALM      29.97F HX  99
FAIRFIELD*     MOSUNNY   90  79  70 SW3       29.96F HX 106
HARRISBURG*    SUNNY     91  78  65 SW6       29.99S HX 106
ROBINSON*      FAIR      88  76  68 CALM      29.98F HX  98
CARMI*         MOSUNNY   89  73  59 CALM      29.97F HX  97
$$

ABBREVIATIONS USED IN REMARKS
   TC - TEMPERATURE IN CELSIUS
  WCI - WIND CHILL INDEX
   HX - HEAT INDEX
  VSB - VISIBILITY
$$




USA.gov is the U.S. government's official web portal to all federal, state and local government web resources and services.